| time (UTC) | temp C | wind direction | speed KPH | gust KPH | rain 1hr cm | rain 24hr cm | rain mn cm | humidity % | barometer mb |
| 20260831040028 | 22 | 351 | 6.4 | 17.7 | 0.00 | 0.03 | 0.03 | 62 | 1027.7 |
| 20260831034524 | 22 | 86 | 6.4 | 17.7 | 0.00 | 0.03 | 0.03 | 63 | 1027.8 |
| 20260831033022 | 22 | 110 | 6.4 | 16.1 | 0.00 | 0.03 | 0.03 | 64 | 1028.0 |
| 20260831031526 | 22 | 32 | 8.0 | 19.3 | 0.00 | 0.03 | 0.03 | 65 | 1028.0 |
| 20260831030019 | 22 | 75 | 6.4 | 17.7 | 0.00 | 0.03 | 0.03 | 63 | 1028.2 |
| 20260831024526 | 22 | 49 | 9.7 | 17.7 | 0.00 | 0.03 | 0.03 | 63 | 1028.3 |
| 20260831023017 | 22 | 33 | 3.2 | 16.1 | 0.00 | 0.03 | 0.03 | 63 | 1028.5 |
| 20260831021524 | 21 | 78 | 6.4 | 14.5 | 0.00 | 0.03 | 0.03 | 64 | 1028.8 |
| 20260831020015 | 21 | 57 | 4.8 | 17.7 | 0.00 | 0.03 | 0.03 | 64 | 1028.9 |
| 20260831014515 | 21 | 58 | 6.4 | 14.5 | 0.00 | 0.03 | 0.03 | 63 | 1029.3 |
| 20260831013022 | 22 | 73 | 3.2 | 12.9 | 0.00 | 0.03 | 0.03 | 61 | 1029.5 |
| 20260831011514 | 22 | 75 | 3.2 | 12.9 | 0.00 | 0.03 | 0.03 | 58 | 1029.6 |
| 20260831010112 | 22 | 161 | 3.2 | 11.3 | 0.00 | 0.03 | 0.03 | 59 | 1029.6 |
| 20260831004505 | 22 | 133 | 1.6 | 11.3 | 0.00 | 0.03 | 0.03 | 60 | 1029.8 |
| 20260831003004 | 22 | 143 | 1.6 | 8.0 | 0.00 | 0.03 | 0.03 | 61 | 1029.9 |
| 20260831001502 | 22 | 111 | 1.6 | 8.0 | 0.00 | 0.03 | 0.03 | 61 | 1029.8 |
| 20260830234556 | 21 | 138 | 0.0 | 6.4 | 0.00 | 0.03 | 0.03 | 66 | 1029.8 |
| 20260830233103 | 20 | 139 | 1.6 | 6.4 | 0.00 | 0.03 | 0.03 | 69 | 1029.7 |
| 20260830231555 | 19 | 139 | 1.6 | 4.8 | 0.00 | 0.03 | 0.03 | 72 | 1029.8 |
| 20260830230046 | 18 | 10 | 1.6 | 6.4 | 0.00 | 0.03 | 0.03 | 82 | 1029.9 |
| 20260830224600 | 16 | 10 | 0.0 | 4.8 | 0.00 | 0.03 | 0.03 | 88 | 1029.9 |
| 20260830223036 | 15 | 10 | 0.0 | 6.4 | 0.00 | 0.03 | 0.03 | 92 | 1029.8 |
| 20260830221534 | 14 | 303 | 1.6 | 3.2 | 0.00 | 0.03 | 0.03 | 93 | 1029.7 |
| 20260830220037 | 14 | 305 | 1.6 | 4.8 | 0.00 | 0.03 | 0.03 | 94 | 1029.6 |
| 20260830214539 | 12 | 304 | 1.6 | 6.4 | 0.00 | 0.03 | 0.03 | 94 | 1029.3 |
| 20260830213027 | 12 | 303 | 1.6 | 4.8 | 0.00 | 0.03 | 0.03 | 93 | 1029.2 |
| 20260830211531 | 11 | 303 | 1.6 | 6.4 | 0.00 | 0.03 | 0.03 | 94 | 1029.1 |
| 20260830210031 | 11 | 291 | 4.8 | 6.4 | 0.00 | 0.03 | 0.03 | 94 | 1029.0 |
| 20260830204529 | 11 | 269 | 4.8 | 11.3 | 0.00 | 0.03 | 0.03 | 93 | 1028.9 |
| 20260830203026 | 11 | 268 | 4.8 | 11.3 | 0.00 | 0.03 | 0.03 | 93 | 1028.8 |
| 20260830201523 | 11 | 269 | 4.8 | 12.9 | 0.00 | 0.03 | 0.03 | 94 | 1028.5 |
| 20260830200021 | 11 | 274 | 4.8 | 11.3 | 0.00 | 0.03 | 0.03 | 93 | 1028.6 |
| 20260830194523 | 11 | 244 | 3.2 | 8.0 | 0.00 | 0.03 | 0.03 | 93 | 1028.4 |
| 20260830193020 | 11 | 252 | 4.8 | 6.4 | 0.00 | 0.03 | 0.03 | 93 | 1028.3 |
| 20260830191522 | 11 | 259 | 1.6 | 3.2 | 0.00 | 0.03 | 0.03 | 93 | 1028.2 |
| 20260830190018 | 11 | 259 | 0.0 | 4.8 | 0.00 | 0.03 | 0.03 | 93 | 1027.9 |
| 20260830184517 | 11 | 257 | 0.0 | 4.8 | 0.00 | 0.03 | 0.03 | 93 | 1028.0 |
| 20260830183016 | 11 | 257 | 1.6 | 3.2 | 0.00 | 0.03 | 0.03 | 93 | 1028.0 |
| 20260830181514 | 11 | 256 | 0.0 | 3.2 | 0.00 | 0.03 | 0.03 | 93 | 1028.1 |
| 20260830180011 | 11 | 256 | 1.6 | 4.8 | 0.00 | 0.03 | 0.03 | 92 | 1028.2 |
| 20260830174511 | 11 | 256 | 0.0 | 4.8 | 0.03 | 0.03 | 0.03 | 93 | 1028.4 |
| 20260830173008 | 11 | 256 | 1.6 | 3.2 | 0.03 | 0.03 | 0.03 | 92 | 1028.4 |
| 20260830171506 | 12 | 256 | 1.6 | 4.8 | 0.03 | 0.03 | 0.03 | 92 | 1028.4 |
| 20260830170006 | 12 | 256 | 1.6 | 4.8 | 0.03 | 0.03 | 0.03 | 92 | 1028.6 |
| 20260830164504 | 12 | 256 | 1.6 | 4.8 | 0.00 | 0.00 | 0.00 | 92 | 1028.6 |
| 20260830163004 | 12 | 256 | 1.6 | 4.8 | 0.00 | 0.00 | 0.00 | 92 | 1028.8 |
| 20260830161502 | 12 | 255 | 3.2 | 6.4 | 0.00 | 0.00 | 0.00 | 92 | 1028.8 |
| 20260830160059 | 12 | 232 | 1.6 | 4.8 | 0.00 | 0.00 | 0.00 | 92 | 1028.9 |
| 20260830154558 | 12 | 232 | 1.6 | 3.2 | 0.00 | 0.00 | 0.00 | 92 | 1028.9 |
| 20260830153054 | 11 | 232 | 0.0 | 3.2 | 0.00 | 0.00 | 0.00 | 92 | 1029.0 |
| 20260830151557 | 11 | 232 | 0.0 | 3.2 | 0.00 | 0.00 | 0.00 | 91 | 1029.1 |
| 20260830150056 | 11 | 232 | 0.0 | 1.6 | 0.00 | 0.00 | 0.00 | 91 | 1029.1 |
| 20260830144552 | 11 | 232 | 0.0 | 1.6 | 0.00 | 0.00 | 0.00 | 91 | 1029.3 |
| 20260830143107 | 11 | 232 | 0.0 | 1.6 | 0.00 | 0.00 | 0.00 | 91 | 1029.3 |
| 20260830141548 | 11 | 232 | 0.0 | 1.6 | 0.00 | 0.00 | 0.00 | 90 | 1029.2 |
| 20260830140050 | 11 | 232 | 0.0 | 4.8 | 0.00 | 0.00 | 0.00 | 90 | 1029.3 |
| 20260830134547 | 11 | 232 | 0.0 | 4.8 | 0.00 | 0.00 | 0.00 | 90 | 1029.3 |
| 20260830133045 | 11 | 232 | 1.6 | 4.8 | 0.00 | 0.00 | 0.00 | 90 | 1029.4 |
| 20260830131544 | 11 | 230 | 1.6 | 6.4 | 0.00 | 0.00 | 0.00 | 89 | 1029.3 |
| 20260830130101 | 11 | 228 | 1.6 | 4.8 | 0.00 | 0.00 | 0.00 | 89 | 1029.4 |
| 20260830124543 | 11 | 232 | 3.2 | 6.4 | 0.00 | 0.00 | 0.00 | 88 | 1029.3 |
| 20260830123058 | 12 | 272 | 1.6 | 4.8 | 0.00 | 0.00 | 0.00 | 88 | 1029.2 |
| 20260830121543 | 12 | 5 | 0.0 | 3.2 | 0.00 | 0.00 | 0.00 | 88 | 1029.0 |
| 20260830120042 | 12 | 5 | 0.0 | 3.2 | 0.00 | 0.00 | 0.00 | 88 | 1028.9 |
| 20260830114549 | 12 | 5 | 0.0 | 4.8 | 0.00 | 0.00 | 0.00 | 88 | 1028.9 |
| 20260830113040 | 12 | 5 | 0.0 | 3.2 | 0.00 | 0.00 | 0.00 | 88 | 1029.0 |
| 20260830111540 | 12 | 5 | 0.0 | 3.2 | 0.00 | 0.00 | 0.00 | 87 | 1029.0 |
| 20260830110040 | 12 | 5 | 0.0 | 3.2 | 0.00 | 0.00 | 0.00 | 88 | 1029.0 |
| 20260830104548 | 12 | 5 | 0.0 | 4.8 | 0.00 | 0.00 | 0.00 | 88 | 1028.9 |
| 20260830103040 | 12 | 22 | 0.0 | 3.2 | 0.00 | 0.00 | 0.00 | 88 | 1028.6 |
| 20260830101541 | 12 | 23 | 1.6 | 4.8 | 0.00 | 0.00 | 0.00 | 86 | 1028.5 |
| 20260830100038 | 12 | 23 | 0.0 | 3.2 | 0.00 | 0.00 | 0.00 | 86 | 1028.6 |
| 20260830094540 | 13 | 75 | 0.0 | 0.0 | 0.00 | 0.00 | 0.00 | 85 | 1028.3 |
| 20260830093037 | 13 | 75 | 0.0 | 1.6 | 0.00 | 0.00 | 0.00 | 83 | 1028.2 |
| 20260830091539 | 13 | 75 | 0.0 | 1.6 | 0.00 | 0.00 | 0.00 | 83 | 1028.3 |
| 20260830090037 | 14 | 75 | 0.0 | 3.2 | 0.00 | 0.00 | 0.00 | 82 | 1028.2 |
| 20260830084539 | 15 | 75 | 0.0 | 6.4 | 0.00 | 0.00 | 0.00 | 81 | 1028.1 |
| 20260830083034 | 15 | 62 | 0.0 | 4.8 | 0.00 | 0.00 | 0.00 | 81 | 1027.8 |
| 20260830081546 | 15 | 35 | 0.0 | 8.0 | 0.00 | 0.00 | 0.00 | 79 | 1027.9 |
| 20260830080034 | 15 | 83 | 1.6 | 9.7 | 0.00 | 0.00 | 0.00 | 77 | 1027.8 |
| 20260830074535 | 15 | 72 | 1.6 | 6.4 | 0.00 | 0.00 | 0.00 | 75 | 1027.6 |
| 20260830073032 | 16 | 95 | 1.6 | 4.8 | 0.00 | 0.00 | 0.00 | 74 | 1027.6 |
| 20260830071544 | 16 | 47 | 0.0 | 4.8 | 0.00 | 0.00 | 0.00 | 71 | 1027.6 |
| 20260830070037 | 18 | 60 | 0.0 | 6.4 | 0.00 | 0.00 | 0.00 | 66 | 1027.4 |
| 20260830064631 | 20 | 64 | 1.6 | 6.4 | 0.00 | 0.00 | 0.00 | 58 | 1027.3 |
| 20260830063037 | 21 | 70 | 3.2 | 8.0 | 0.00 | 0.00 | 0.00 | 55 | 1027.5 |
| 20260830061530 | 23 | 68 | 3.2 | 9.7 | 0.00 | 0.00 | 0.00 | 49 | 1027.4 |
| 20260830060029 | 25 | 149 | 0.0 | 8.0 | 0.00 | 0.00 | 0.00 | 47 | 1027.5 |
| 20260830054532 | 23 | 65 | 1.6 | 6.4 | 0.00 | 0.00 | 0.00 | 50 | 1027.6 |
| 20260830053024 | 23 | 136 | 0.0 | 4.8 | 0.00 | 0.00 | 0.00 | 50 | 1027.7 |
| 20260830051523 | 22 | 70 | 0.0 | 9.7 | 0.00 | 0.00 | 0.00 | 52 | 1027.5 |
| 20260830050023 | 23 | 117 | 1.6 | 6.4 | 0.00 | 0.00 | 0.00 | 53 | 1027.6 |
| 20260830044521 | 22 | 73 | 0.0 | 8.0 | 0.00 | 0.00 | 0.00 | 55 | 1027.7 |
| 20260830043018 | 22 | 97 | 1.6 | 6.4 | 0.00 | 0.00 | 0.00 | 53 | 1027.6 |
| 20260830041522 | 23 | 64 | 0.0 | 9.7 | 0.00 | 0.00 | 0.00 | 54 | 1027.7 |